Owosso, MI

8:54 AM EDT on August 23, 2017 (GMT -0400)
Owosso

Weather History for KRNP - February, 2013

Change the Weather History Date:

Friday, February 22, 2013

  Actual Average (KFNT) Record (KFNT)
Temperature  
Mean Temperature 28 °F -  
Max Temperature 34 °F 37 °F 65 °F (1930)
Min Temperature 22 °F 22 °F -5 °F (1963)
Degree Days  
Heating Degree Days 37    
Moisture  
Dew Point 25 °F    
Average Humidity 87    
Maximum Humidity 96    
Minimum Humidity 76    
Precipitation  
Precipitation 0.00 in - - ()
Sea Level Pressure  
Sea Level Pressure 29.98 in    
Wind  
Wind Speed 10 mph (SE)    
Max Wind Speed 14 mph    
Max Gust Speed 20 mph    
Visibility 6 miles    
Events Rain , Snow    
Averages and records for this station are not official NWS values.
T = Trace of Precipitation, MM = Missing Value Source: NWS Daily Summary

Daily Weather History Graph

Daily Weather History Graph

Search for Another Location

Airport or City:

Trip Planner

Search our weather history database for the weather conditions in past years. The results will help you decide how hot, cold, wet, or windy it might be!

Date:

Astronomy

Feb. 22, 2013 Rise Set
Actual Time 7:23 AM EST 6:17 PM EST
Civil Twilight 6:54 AM EST 6:46 PM EST
Nautical Twilight 6:21 AM EST 7:19 PM EST
Astronomical Twilight 5:48 AM EST 7:51 PM EST
Moon 3:25 PM EST (2/22) 5:11 AM EST (2/22)
Length of Visible Light 11h 51m
Length of Day
10h 54m
Waxing Gibbous, 90% of the Moon is Illuminated
Feb 22
Waxing Gibbous
Feb 25
Full
Mar 4
Last Quarter
Mar 11
New
Mar 19
First Quarter

Hourly Weather History & Observations

Time (EST) Temp. Windchill Dew Point Humidity Pressure Visibility Wind Dir Wind Speed Gust Speed Precip Events Conditions
12:15 AM 22.8 °F 12.9 °F 18.3 °F 83% 30.23 in 10.0 mi East 9.2 mph - N/A   Overcast
12:35 AM 23.0 °F 11.7 °F 19.6 °F 87% 30.22 in 10.0 mi East 11.5 mph 16.1 mph N/A   Overcast
12:55 AM 23.0 °F 13.1 °F 20.3 °F 89% 30.22 in 10.0 mi East 9.2 mph 16.1 mph N/A   Overcast
1:15 AM 23.5 °F 12.4 °F 21.0 °F 90% 30.22 in 10.0 mi East 11.5 mph - N/A   Overcast
1:35 AM 23.7 °F 12.6 °F 21.2 °F 90% 30.23 in 10.0 mi East 11.5 mph - N/A   Overcast
1:55 AM 23.9 °F 12.3 °F 21.6 °F 91% 30.22 in 10.0 mi East 12.7 mph 17.3 mph N/A   Overcast
2:14 AM 24.1 °F 12.5 °F 21.4 °F 89% 30.19 in 10.0 mi East 12.7 mph - N/A   Overcast
2:35 AM 24.4 °F 12.4 °F 21.2 °F 87% 30.19 in 10.0 mi East 13.8 mph 19.6 mph N/A   Overcast
2:55 AM 24.6 °F 14.4 °F 20.8 °F 86% 30.17 in 10.0 mi East 10.4 mph 18.4 mph N/A   Overcast
3:14 AM 24.6 °F 14.4 °F 20.3 °F 84% 30.17 in 10.0 mi ESE 10.4 mph 17.3 mph N/A   Overcast
3:35 AM 24.6 °F 13.8 °F 20.1 °F 83% 30.14 in 10.0 mi East 11.5 mph 16.1 mph N/A   Overcast
3:54 AM 24.6 °F 15.1 °F 19.8 °F 82% 30.12 in 10.0 mi East 9.2 mph - N/A   Overcast
4:15 AM 24.6 °F 13.8 °F 19.4 °F 81% 30.10 in 10.0 mi East 11.5 mph - N/A   Overcast
4:35 AM 24.6 °F 13.2 °F 19.2 °F 80% 30.09 in 10.0 mi East 12.7 mph 19.6 mph N/A   Overcast
4:54 AM 24.6 °F 13.8 °F 18.9 °F 79% 30.09 in 10.0 mi East 11.5 mph - N/A   Overcast
5:15 AM 24.6 °F 14.4 °F 18.3 °F 77% 30.08 in 10.0 mi East 10.4 mph - N/A   Overcast
5:35 AM 24.6 °F 15.8 °F 18.1 °F 76% 30.09 in 10.0 mi East 8.1 mph - N/A   Overcast
5:55 AM 24.8 °F 16.1 °F 18.1 °F 76% 30.11 in 7.0 mi East 8.1 mph - N/A Snow Light Snow
6:15 AM 24.8 °F 15.3 °F 18.5 °F 77% 30.09 in 4.0 mi East 9.2 mph - N/A Snow Light Snow
6:35 AM 23.9 °F 14.2 °F 19.8 °F 84% 30.06 in 1.2 mi ENE 9.2 mph - N/A Snow Light Snow
7:15 AM 23.7 °F 12.1 °F 20.3 °F 87% 30.03 in 0.8 mi ENE 12.7 mph - N/A Snow Snow
7:55 AM 23.2 °F 12.0 °F 20.3 °F 89% 29.99 in 0.2 mi ENE 11.5 mph 17.3 mph N/A Snow Snow
8:15 AM 23.2 °F 11.4 °F 20.3 °F 89% 29.99 in 0.8 mi East 12.7 mph 18.4 mph N/A Snow Light Snow
8:55 AM 24.3 °F 12.7 °F 21.2 °F 88% 29.97 in 0.5 mi East 12.7 mph - N/A Snow Light Snow
9:55 AM 24.8 °F 13.4 °F 22.1 °F 89% 29.96 in 0.2 mi East 12.7 mph 18.4 mph N/A Snow Heavy Snow
10:35 AM 26.4 °F 16.6 °F 22.6 °F 86% 29.93 in 3.0 mi East 10.4 mph - N/A Snow Light Snow
10:55 AM 27.5 °F 16.3 °F 22.6 °F 82% 29.92 in 5.0 mi East 13.8 mph 19.6 mph N/A   Overcast
11:15 AM 27.7 °F 17.1 °F 22.1 °F 80% 29.92 in 4.0 mi ESE 12.7 mph - N/A   Haze
11:35 AM 28.4 °F 18.5 °F 23.0 °F 80% 29.91 in 2.5 mi ESE 11.5 mph 17.3 mph N/A   Haze
11:55 AM 28.8 °F 19.0 °F 23.4 °F 80% 29.91 in 2.0 mi ESE 11.5 mph - N/A   Haze
12:14 PM 29.3 °F 20.8 °F 24.3 °F 81% 29.90 in 1.5 mi SE 9.2 mph - N/A Snow Light Snow
12:35 PM 29.3 °F 20.2 °F 24.8 °F 83% 29.90 in 1.2 mi SE 10.4 mph - N/A Snow Light Snow
12:55 PM 29.3 °F 21.5 °F 25.3 °F 85% 29.90 in 2.0 mi SE 8.1 mph - N/A   Overcast
1:35 PM 30.2 °F 21.9 °F 24.4 °F 79% 29.88 in 10.0 mi SSE 9.2 mph - N/A   Overcast
2:14 PM 30.2 °F 22.6 °F 25.2 °F 82% 29.88 in 10.0 mi SSE 8.1 mph - N/A   Overcast
2:35 PM 30.2 °F 22.6 °F 25.5 °F 83% 29.87 in 7.0 mi SE 8.1 mph - N/A   Overcast
2:55 PM 30.2 °F 23.4 °F 26.1 °F 85% 29.87 in 7.0 mi SE 6.9 mph - N/A   Overcast
3:15 PM 30.4 °F 23.6 °F 26.4 °F 85% 29.87 in 10.0 mi SE 6.9 mph - N/A   Overcast
3:35 PM 30.6 °F 23.8 °F 26.4 °F 85% 29.86 in 10.0 mi SSE 6.9 mph - N/A   Overcast
6:35 PM 31.1 °F 25.4 °F 29.1 °F 92% 29.86 in 5.0 mi SSE 5.8 mph - N/A Rain Light Freezing Rain
6:54 PM 31.5 °F 26.8 °F 29.3 °F 92% 29.86 in 4.0 mi SSE 4.6 mph - N/A   Overcast
7:15 PM 31.8 °F 26.2 °F 30.0 °F 93% 29.87 in 3.0 mi SSE 5.8 mph - N/A   Overcast
7:35 PM 32.0 °F 26.4 °F 30.2 °F 93% 29.87 in 3.0 mi South 5.8 mph - N/A   Overcast
7:55 PM 32.2 °F 27.7 °F 30.9 °F 95% 29.87 in 4.0 mi South 4.6 mph - N/A   Overcast
8:15 PM 32.2 °F 26.7 °F 31.1 °F 96% 29.86 in 4.0 mi South 5.8 mph - N/A   Overcast
8:34 PM 32.4 °F 26.9 °F 31.1 °F 95% 29.86 in 4.0 mi SSE 5.8 mph - N/A   Overcast
8:55 PM 32.5 °F 27.1 °F 31.3 °F 95% 29.85 in 4.0 mi South 5.8 mph - N/A Snow Light Snow
9:15 PM 32.9 °F 27.5 °F 31.6 °F 95% 29.85 in 4.0 mi South 5.8 mph - N/A Snow Light Snow
9:34 PM 33.1 °F 27.7 °F 32.0 °F 96% 29.85 in 4.0 mi South 5.8 mph - N/A Snow Light Snow
9:55 PM 33.3 °F 27.1 °F 32.0 °F 95% 29.86 in 4.0 mi South 6.9 mph - N/A Snow Light Snow
10:15 PM 33.4 °F 28.1 °F 32.0 °F 94% 29.86 in 7.0 mi South 5.8 mph - N/A   Overcast
10:34 PM 33.8 °F 27.7 °F 32.0 °F 93% 29.85 in 7.0 mi SSW 6.9 mph - N/A   Overcast
10:55 PM 34.0 °F 28.0 °F 32.0 °F 92% 29.84 in 7.0 mi SSW 6.9 mph - N/A   Overcast
11:15 PM 34.2 °F 28.2 °F 32.0 °F 92% 29.85 in 7.0 mi SSW 6.9 mph - N/A   Overcast
11:35 PM 34.2 °F 28.2 °F 32.0 °F 92% 29.84 in 7.0 mi SSW 6.9 mph - N/A   Overcast
11:55 PM 34.2 °F 27.5 °F 32.0 °F 92% 29.84 in 10.0 mi SW 8.1 mph - N/A   Overcast